BEIDOU-3 M24

Last updated on Wed Aug 26 2026 00:03:35 GMT+0000 (Coordinated Universal Time)

1 44542U 19061A 26236.97257808 -.00000007 00000+0 00000+0 0 9997 2 44542 54.3959 180.4090 0009075 7.2849 352.6965 1.86229461 47072
UTC large
Height (km)
Speed (km/s)
/
Latitude / Longitude
Inclination (degrees)
Orbital Period (minutes)
Azimuth
Elevation
Range (km)
Doppler Factor

Next 0 passes for location: London (51.5072 / 0.1276)

No passes found over London.
BEIDOU-3 M24